DLH861 LTFJ-EDDB

Flight info

Callsign DLH861
Flight time N/A
Altitude 40000
Route VADEN1J/06L VADEN DCT BAKLO DCT ROVAM DCT DOLAP DCT SOMUN DCT PODET DCT KLAGY DCT KFT DCT ERKIR DCT KPT L856 NEGRA NEGR2A LSZH/14
Aircraft A380/J-V/N

Departure

Time 2026-04-30 20:12
Airport Istanbul Sabiha Gökçen International Airport (LTFJ)

Arrival

Time N/A
Airport Berlin Brandenburg Airport (EDDB)
Time Latitude Longitude Altitude Speed Heading
2026-04-30 19:32 40.90604 29.31667 316 ft 0 kts 335°
2026-04-30 19:58 40.90595 29.31673 318 ft 2 kts 334°
2026-04-30 19:58 40.90580 29.31683 314 ft 2 kts 333°
2026-04-30 19:58 40.90565 29.31693 313 ft 2 kts 332°
2026-04-30 19:58 40.90550 29.31703 313 ft 2 kts 332°
2026-04-30 19:59 40.90536 29.31714 313 ft 2 kts 330°
2026-04-30 19:59 40.90522 29.31725 313 ft 2 kts 329°
2026-04-30 19:59 40.90511 29.31734 314 ft 0 kts 328°
2026-04-30 20:00 40.90509 29.31736 314 ft 1 kts 323°
2026-04-30 20:00 40.90518 29.31727 314 ft 3 kts 319°
2026-04-30 20:00 40.90531 29.31710 315 ft 3 kts 302°
2026-04-30 20:00 40.90539 29.31688 313 ft 3 kts 277°
2026-04-30 20:01 40.90536 29.31664 314 ft 0 kts 238°
2026-04-30 20:03 40.90533 29.31656 315 ft 3 kts 240°
2026-04-30 20:03 40.90513 29.31609 317 ft 9 kts 241°
2026-04-30 20:03 40.90476 29.31515 317 ft 15 kts 245°
2026-04-30 20:03 40.90422 29.31445 316 ft 9 kts 165°
2026-04-30 20:04 40.90349 29.31476 317 ft 13 kts 160°
2026-04-30 20:04 40.90266 29.31454 318 ft 15 kts 229°
2026-04-30 20:04 40.90208 29.31314 316 ft 20 kts 244°
2026-04-30 20:05 40.90063 29.30912 315 ft 28 kts 244°
2026-04-30 20:05 40.89974 29.30672 313 ft 30 kts 244°
2026-04-30 20:05 40.89779 29.30147 313 ft 34 kts 244°
2026-04-30 20:06 40.89674 29.29865 310 ft 35 kts 244°
2026-04-30 20:06 40.89572 29.29579 310 ft 33 kts 244°
2026-04-30 20:06 40.89495 29.29369 311 ft 25 kts 244°
2026-04-30 20:06 40.89403 29.29262 311 ft 14 kts 177°
2026-04-30 20:07 40.89368 29.29273 308 ft 0 kts 150°
2026-04-30 20:10 40.89342 29.29293 310 ft 7 kts 150°
2026-04-30 20:10 40.89303 29.29336 310 ft 8 kts 118°
2026-04-30 20:10 40.89299 29.29410 310 ft 9 kts 74°
2026-04-30 20:11 40.89371 29.29611 312 ft 60 kts 63°
2026-04-30 20:11 40.89665 29.30403 316 ft 125 kts 64°
2026-04-30 20:11 40.90105 29.31601 382 ft 157 kts 62°
2026-04-30 20:12 40.91023 29.34128 1703 ft 148 kts 62°
2026-04-30 20:12 40.91485 29.35365 2337 ft 157 kts 62°
2026-04-30 20:12 40.91999 29.36743 2705 ft 177 kts 62°
2026-04-30 20:13 40.92573 29.38290 3122 ft 200 kts 63°
2026-04-30 20:13 40.93220 29.40048 3576 ft 226 kts 63°
2026-04-30 20:13 40.93939 29.42007 4155 ft 246 kts 63°
2026-04-30 20:13 40.94707 29.44103 4821 ft 262 kts 64°
2026-04-30 20:14 40.95526 29.46342 5491 ft 277 kts 64°
2026-04-30 20:14 40.96382 29.48682 6306 ft 285 kts 64°
2026-04-30 20:14 40.97260 29.51084 6869 ft 293 kts 64°
2026-04-30 20:14 40.98154 29.53528 7009 ft 296 kts 64°
2026-04-30 20:15 40.99050 29.55980 6996 ft 295 kts 64°
2026-04-30 20:15 40.99949 29.58425 6997 ft 294 kts 61°
2026-04-30 20:15 41.01239 29.60456 7070 ft 294 kts 34°
2026-04-30 20:15 41.03119 29.61542 7458 ft 293 kts
2026-04-30 20:16 41.05088 29.61402 8324 ft 287 kts 341°
2026-04-30 20:16 41.06994 29.60592 9195 ft 288 kts 334°
2026-04-30 20:16 41.08892 29.59649 10017 ft 295 kts 334°
2026-04-30 20:16 41.10866 29.58730 10572 ft 311 kts 336°
2026-04-30 20:17 41.13003 29.57822 10804 ft 334 kts 338°
2026-04-30 20:17 41.15291 29.56926 11258 ft 347 kts 339°
2026-04-30 20:17 41.17639 29.56042 11956 ft 352 kts 339°
2026-04-30 20:17 41.20006 29.55156 12690 ft 356 kts 339°
2026-04-30 20:18 41.22413 29.54251 13420 ft 360 kts 339°
2026-04-30 20:18 41.24858 29.53412 14103 ft 367 kts 343°
2026-04-30 20:18 41.27338 29.52738 14790 ft 369 kts 343°
2026-04-30 20:18 41.29896 29.52026 15484 ft 371 kts 342°
2026-04-30 20:19 41.32406 29.51318 16131 ft 374 kts 342°
2026-04-30 20:19 41.34103 29.50838 16613 ft 376 kts 342°
2026-04-30 20:19 41.37549 29.49861 17478 ft 379 kts 341°
2026-04-30 20:19 41.40063 29.48838 18140 ft 376 kts 332°
2026-04-30 20:20 41.42500 29.47555 18721 ft 378 kts 332°
2026-04-30 20:20 41.44128 29.46715 19098 ft 380 kts 332°
2026-04-30 20:20 41.46604 29.45450 19650 ft 382 kts 332°
2026-04-30 20:20 41.49913 29.43763 20364 ft 385 kts 332°
2026-04-30 20:21 41.52421 29.42481 20905 ft 388 kts 332°
2026-04-30 20:21 41.54129 29.41606 21278 ft 389 kts 332°
2026-04-30 20:21 41.56664 29.40306 21808 ft 392 kts 332°
2026-04-30 20:21 41.59187 29.39008 22332 ft 394 kts 331°
2026-04-30 20:22 41.61547 29.37264 22834 ft 384 kts 315°
2026-04-30 20:22 41.63425 29.34787 23368 ft 375 kts 301°
2026-04-30 20:22 41.64736 29.31821 23883 ft 368 kts 288°
2026-04-30 20:22 41.65445 29.28544 24338 ft 364 kts 275°
2026-04-30 20:23 41.65592 29.25191 24790 ft 363 kts 269°
2026-04-30 20:23 41.65660 29.21839 25244 ft 365 kts 270°
2026-04-30 20:23 41.65746 29.18430 25734 ft 367 kts 270°
2026-04-30 20:23 41.65833 29.15010 26236 ft 369 kts 270°
2026-04-30 20:24 41.65918 29.11575 26738 ft 371 kts 270°
2026-04-30 20:24 41.66000 29.08118 27286 ft 373 kts 270°
2026-04-30 20:24 41.66081 29.04641 27823 ft 375 kts 270°
2026-04-30 20:24 41.66158 29.01183 28379 ft 377 kts 270°
2026-04-30 20:25 41.66315 28.94088 29514 ft 381 kts 270°
2026-04-30 20:25 41.66390 28.90575 30053 ft 384 kts 270°
2026-04-30 20:26 41.66542 28.83383 31023 ft 389 kts 270°
2026-04-30 20:26 41.66691 28.76080 31960 ft 394 kts 270°
2026-04-30 20:26 41.66765 28.72408 32411 ft 397 kts 270°
2026-04-30 20:27 41.66910 28.64966 33302 ft 403 kts 270°
2026-04-30 20:27 41.67044 28.57419 34182 ft 408 kts 269°
2026-04-30 20:28 41.67128 28.49792 34813 ft 417 kts 269°
2026-04-30 20:28 41.67209 28.41987 35628 ft 421 kts 270°
2026-04-30 20:29 41.67290 28.34135 36473 ft 424 kts 270°
2026-04-30 20:30 41.67404 28.22246 37728 ft 427 kts 270°
2026-04-30 20:30 41.67534 28.10323 38932 ft 431 kts 274°
2026-04-30 20:31 41.69865 27.98719 39912 ft 437 kts 294°
2026-04-30 20:32 41.74787 27.88216 40149 ft 443 kts 299°
2026-04-30 20:32 41.78128 27.81280 40153 ft 445 kts 299°
2026-04-30 20:33 41.83162 27.70797 40156 ft 446 kts 299°
2026-04-30 20:34 41.88186 27.60305 40163 ft 448 kts 299°
2026-04-30 20:35 41.93248 27.49696 40169 ft 450 kts 299°
2026-04-30 20:35 41.98314 27.39041 40177 ft 452 kts 299°
2026-04-30 20:36 42.01700 27.31898 40166 ft 454 kts 299°
2026-04-30 20:37 42.06777 27.21159 40175 ft 455 kts 299°
2026-04-30 20:37 42.10137 27.13932 40186 ft 456 kts 299°
2026-04-30 20:38 42.13486 27.06657 40195 ft 457 kts 299°
2026-04-30 20:38 42.16826 26.99371 40202 ft 457 kts 299°
2026-04-30 20:39 42.21811 26.88450 40217 ft 457 kts 299°
2026-04-30 20:40 42.26794 26.77479 40218 ft 457 kts 299°
2026-04-30 20:40 42.30110 26.70164 40223 ft 456 kts 299°
2026-04-30 20:41 42.35080 26.59173 40223 ft 456 kts 299°
2026-04-30 20:41 42.38379 26.51855 40216 ft 455 kts 299°
2026-04-30 20:42 42.41655 26.44571 40219 ft 455 kts 299°
2026-04-30 20:43 42.46598 26.33555 40224 ft 456 kts 299°
2026-04-30 20:43 42.49894 26.26188 40226 ft 456 kts 299°
2026-04-30 20:44 42.54807 26.15161 40239 ft 458 kts 299°
2026-04-30 20:45 42.61383 26.00306 40260 ft 459 kts 299°
2026-04-30 20:45 42.64630 25.92928 40271 ft 459 kts 299°
2026-04-30 20:46 42.71168 25.78020 40284 ft 458 kts 299°
2026-04-30 20:47 42.76060 25.66862 40295 ft 457 kts 299°
2026-04-30 20:48 42.80928 25.55741 40301 ft 456 kts 298°
2026-04-30 20:48 42.82248 25.51840 40298 ft 453 kts 287°
2026-04-30 20:48 42.82926 25.47652 40304 ft 452 kts 275°
2026-04-30 20:49 42.82933 25.43384 40300 ft 453 kts 264°
2026-04-30 20:49 42.82425 25.39146 40288 ft 453 kts 263°
2026-04-30 20:50 42.83103 25.26423 40308 ft 452 kts 284°
2026-04-30 20:50 42.84867 25.18196 40306 ft 453 kts 286°
2026-04-30 20:51 42.86743 25.10039 40318 ft 454 kts 286°
2026-04-30 20:51 42.89537 24.97704 40320 ft 454 kts 286°
2026-04-30 20:52 42.91390 24.89448 40319 ft 454 kts 286°
2026-04-30 20:53 42.94154 24.77066 40327 ft 455 kts 286°
2026-04-30 20:53 42.95980 24.68849 40319 ft 455 kts 286°
2026-04-30 20:54 42.98725 24.56438 40336 ft 455 kts 286°
2026-04-30 20:55 43.01457 24.44014 40340 ft 455 kts 286°
2026-04-30 20:55 43.03272 24.35721 40345 ft 455 kts 286°
2026-04-30 20:56 43.05972 24.23322 40328 ft 456 kts 286°
2026-04-30 20:57 43.08673 24.10847 40330 ft 456 kts 286°
2026-04-30 20:57 43.10457 24.02561 40333 ft 456 kts 285°
2026-04-30 20:58 43.13139 23.90051 40335 ft 456 kts 285°
2026-04-30 20:58 43.14926 23.81692 40339 ft 456 kts 285°
2026-04-30 20:59 43.17584 23.69212 40341 ft 457 kts 285°
2026-04-30 21:00 43.21126 23.52465 40338 ft 457 kts 285°
2026-04-30 21:01 43.23764 23.39908 40338 ft 457 kts 285°
2026-04-30 21:02 43.26384 23.27358 40334 ft 458 kts 285°
2026-04-30 21:02 43.28131 23.18950 40335 ft 458 kts 285°
2026-04-30 21:03 43.29870 23.10541 40331 ft 458 kts 285°
2026-04-30 21:03 43.31594 23.02174 40330 ft 458 kts 285°
2026-04-30 21:04 43.33324 22.93743 40329 ft 458 kts 285°
2026-04-30 21:04 43.35910 22.81073 40327 ft 459 kts 285°
2026-04-30 21:05 43.37625 22.72628 40335 ft 459 kts 285°
2026-04-30 21:05 43.39335 22.64166 40330 ft 459 kts 285°
2026-04-30 21:06 43.41033 22.55733 40320 ft 460 kts 285°
2026-04-30 21:06 43.42734 22.47253 40318 ft 460 kts 285°
2026-04-30 21:07 43.44425 22.38790 40315 ft 460 kts 285°
2026-04-30 21:07 43.46117 22.30278 40315 ft 461 kts 285°
2026-04-30 21:08 43.47522 22.23183 40312 ft 461 kts 285°
2026-04-30 21:08 43.49206 22.14659 40317 ft 462 kts 285°
2026-04-30 21:09 43.50881 22.06116 40313 ft 462 kts 285°
2026-04-30 21:09 43.52556 21.97550 40314 ft 462 kts 285°
2026-04-30 21:10 43.53105 21.94732 40332 ft 462 kts 285°